[[{"header":{"parameterUnit":"m.s-1","parameterCategory":1,"la1":30.2991,"la2":30.254,"lo1":-89.0895,"lo2":-89.0444,"dy":0.0017,"dx":0.0017,"nx":28,"ny":28,"refTime":"2023-06-28T21:00:00:Z","depth":0,"parameterNumber":2,"parameterNumberName":"U-component_of_WINDS"},"data":[0,0,0,0,0,0,0,0,0,0,0,0,0,0,0,0,0,0,0,0,0,0,0,0,0,0,0,0,0,0,0,0,0,0,0,0,0,0,0,0,0,0,0,0,0,0,0,0,0,0,0,0,0,0,0,0,0,0,1.3792,1.3793,0,1.3813,1.3814,1.3814,1.3751,1.3749,1.3747,1.3745,1.3771,1.3773,1.3776,0,0,0,0,0,0,0,0,0,0,0,0,0,1.3702,1.3704,1.3792,1.3793,1.3793,1.3813,1.3814,1.3814,1.3751,1.3749,1.3747,1.3744,1.377,1.3773,1.3776,0,0,0,0,0,0,0,0,0,0,0,0,0,1.3734,1.3704,1.3792,1.3764,1.3762,1.3813,1.3814,1.3814,1.3752,1.3749,1.3746,1.3743,1.3769,1.3773,1.3776,1.3858,0,0,1.3788,1.379,0,0,0,0,0,0,0,0,1.3732,1.3737,1.3768,1.3766,1.3763,1.3776,1.3791,1.3829,1.3753,1.3756,1.3745,1.3742,1.3775,1.3778,1.3789,1.3859,1.386,1.3788,1.379,1.3792,1.3793,0,0,0,0,0,0,0,1.373,1.3736,1.3801,1.3768,1.3766,1.3751,1.3753,1.3798,1.3782,1.3755,1.3751,1.3754,1.3774,1.3785,1.3789,1.386,1.3788,1.3791,1.3794,1.3795,1.3998,1.4001,0,0,0,0,0,0,1.3731,1.3735,1.38,1.3801,1.374,1.3755,1.3757,1.3775,1.3781,1.3779,1.3756,1.3751,1.3781,1.3785,1.379,1.3885,1.3792,1.3796,1.3798,1.3995,1.3999,1.4002,0,0,0,0,0,0,1.3729,1.3737,1.3799,1.3767,1.3773,1.376,1.3781,1.3777,1.3789,1.3782,1.3779,1.3771,1.3778,1.3784,1.3841,1.3885,1.3797,1.3801,1.3991,1.3996,1.4001,1.4078,0,0,0,0,0,0,1.3727,1.3737,1.3767,1.3768,1.3775,1.3849,1.3784,1.378,1.3795,1.3788,1.3795,1.3793,1.3777,1.3836,1.3845,1.3889,1.3804,1.3987,1.3994,1.3999,1.4071,1.4084,1.4096,0,0,0,0,0,1.3724,1.3789,1.3769,1.3777,1.3812,1.3852,1.3857,1.3835,1.3799,1.3829,1.3825,1.3793,1.3879,1.3842,1.3852,1.3898,1.3985,1.3992,1.3999,1.4066,1.4082,1.4096,0,0,0,0,0,0,1.3795,1.3788,1.3766,1.3833,1.3843,1.3841,1.3879,1.3853,1.3875,1.3867,1.3841,1.3843,1.3905,1.3906,1.3866,1.3977,1.3926,1.3935,1.3973,1.3989,1.4001,1.4,1.3807,0,0,0,0,0,1.3818,1.385,1.3843,1.3903,1.3909,1.3893,1.391,1.3892,1.3902,1.3907,1.3906,1.3918,1.3948,1.3968,1.3995,1.4071,1.4072,1.4107,1.4119,1.413,1.4138,1.4179,1.4195,1.4026,1.4026,1.4025,0,0,1.3868,1.3868,1.389,1.3917,1.3923,1.3957,1.3897,1.3936,1.3962,1.3913,1.3966,1.3966,1.3978,1.4044,1.4074,1.4048,1.4185,1.4139,1.4147,1.415,1.4188,1.4204,1.4218,1.403,1.403,1.4029,0,0,1.3975,1.3977,1.4027,1.4034,1.4043,1.4032,1.4044,1.4046,1.4044,1.4096,1.406,1.4091,1.4142,1.4152,1.4164,1.4274,1.4246,1.4284,1.4349,1.4389,1.4402,1.4414,1.4454,1.4468,1.4292,1.4292,1.4292,0,1.4035,1.4084,1.4057,1.4098,1.4112,1.4067,1.4118,1.4127,1.4145,1.4156,1.4126,1.419,1.4194,1.4263,1.4289,1.43,1.4314,1.4283,1.4402,1.4413,1.4424,1.4462,1.4477,1.4297,1.4296,1.4296,1.4295,0,1.4158,1.4193,1.4232,1.4249,1.4267,1.4313,1.4294,1.4316,1.4296,1.4289,1.4343,1.4347,1.4374,1.4389,1.4371,1.4455,1.4439,1.4406,1.4355,1.4445,1.448,1.4495,1.4303,1.4302,1.43,1.4299,0,0,1.4312,1.4312,1.4328,1.4335,1.4341,1.4368,1.4412,1.4437,1.4456,1.447,1.4507,1.4552,1.4521,1.4535,1.4517,1.4552,1.464,1.4515,1.4515,1.4539,1.4734,1.4759,1.4776,1.462,1.4623,1.4625,1.4733,0,1.4418,1.4492,1.4469,1.4545,1.4577,1.4535,1.4573,1.4582,1.4576,1.4603,1.4597,1.4629,1.4586,1.4594,1.4626,1.4622,1.4679,1.4614,1.4656,1.4658,1.4656,1.4794,1.4821,1.4923,1.4746,1.4749,1.475,0,1.4552,1.4569,1.4648,1.4648,1.4661,1.4696,1.4717,1.4743,1.4752,1.4745,1.476,1.4735,1.478,1.4727,1.4789,1.4745,1.4761,1.4762,1.4765,1.4769,1.4711,1.4804,1.4955,1.497,1.4772,1.477,1.4768,0,1.4657,1.47,1.4753,1.476,1.4762,1.4788,1.479,1.4796,1.4812,1.4831,1.4841,1.4866,1.4879,1.4899,1.4882,1.4845,1.4947,1.4892,1.4944,1.4944,1.4968,1.4967,1.5125,1.4977,1.4976,1.4976,1.4976,0,1.4778,1.4829,1.48,1.4833,1.4888,1.4861,1.4917,1.4914,1.492,1.4952,1.4917,1.4948,1.4923,1.4952,1.4939,1.4992,1.4999,1.4996,1.4992,1.4999,1.5,1.501,1.5003,1.498,1.4979,1.4978,1.4978,0,1.4906,1.4889,1.4944,1.494,1.4941,1.4981,1.4979,1.501,1.5,1.5042,1.505,1.5037,1.5069,1.5053,1.5088,1.5079,1.5148,1.5135,1.5145,1.5142,1.5194,1.519,1.5366,1.5388,1.5224,1.5226,1.5227,0,1.4985,1.5022,1.5023,1.5041,1.5045,1.5075,1.5091,1.5066,1.5084,1.5097,1.5127,1.5156,1.5178,1.5233,1.5227,1.5253,1.524,1.53,1.5244,1.5251,1.5242,1.5241,1.5245,1.5312,1.5314,1.5315,1.5316,0,1.5128,1.5117,1.5141,1.5162,1.5182,1.5197,1.521,1.5228,1.5203,1.5225,1.5257,1.5275,1.5309,1.5339,1.5362,1.5365,1.5338,1.5334,1.5347,1.5356,1.5361,1.536,1.5177,1.533,1.5329,1.5328,1.5327,1.5327,1.5234,1.5265,1.527,1.5298,1.5304,1.5317,1.5345,1.5339,1.5365,1.539,1.5374,1.5412,1.5421,1.5448,1.5455,1.5485,1.5462,1.5481,1.5486,1.5492,1.5499,1.5355,1.5489,1.5489,1.5489,1.5488,1.5488,0,1.5376,1.5376,1.5402,1.542,1.5442,1.5412,1.5424,1.5445,1.5479,1.5488,1.551,1.5547,1.5576,1.5572,1.5598,1.5623,1.5612,1.5631,1.563,1.5631,1.5518,1.5504,1.5641,1.5641,1.5641,1.5641,1.5641,1.5641,1.5452,1.5503,1.5493,1.5547,1.5548,1.5584,1.5594,1.5605,1.5613,1.5655,1.5678,1.5675,1.5679,1.5705,1.5731,1.5729,1.5741,1.5766,1.576,1.5654,1.5639,1.5625,1.5612,1.5768,1.5769,1.587,1.5871,1.5872]},{"header":{"parameterUnit":"m.s-1","parameterCategory":1,"la1":30.2991,"la2":30.254,"lo1":-89.0895,"lo2":-89.0444,"dy":0.0017,"dx":0.0017,"nx":28,"ny":28,"refTime":"2023-06-28T21:00:00:Z","depth":0,"parameterNumber":3,"parameterNumberName":"V-component_of_WINDS"},"data":[0,0,0,0,0,0,0,0,0,0,0,0,0,0,0,0,0,0,0,0,0,0,0,0,0,0,0,0,0,0,0,0,0,0,0,0,0,0,0,0,0,0,0,0,0,0,0,0,0,0,0,0,0,0,0,0,0,0,2.0451,2.0451,0,2.0525,2.0525,2.0526,2.0519,2.0517,2.0516,2.0515,2.0588,2.0591,2.0594,0,0,0,0,0,0,0,0,0,0,0,0,0,2.03,2.0303,2.0451,2.0451,2.0452,2.0525,2.0526,2.0527,2.0519,2.0517,2.0516,2.0515,2.0587,2.0591,2.0594,0,0,0,0,0,0,0,0,0,0,0,0,0,2.0369,2.0303,2.045,2.0457,2.0459,2.0524,2.0526,2.0527,2.0519,2.0517,2.0516,2.0514,2.0586,2.059,2.0595,2.0657,0,0,2.0608,2.061,0,0,0,0,0,0,0,0,2.0365,2.0374,2.0455,2.0457,2.0459,2.0511,2.0499,2.057,2.052,2.0496,2.0515,2.0513,2.0563,2.057,2.0587,2.0661,2.0664,2.0609,2.0612,2.0614,2.0615,0,0,0,0,0,0,0,2.036,2.0371,2.048,2.0457,2.0459,2.0456,2.0464,2.0513,2.0538,2.0498,2.0498,2.0507,2.0564,2.0583,2.0589,2.0665,2.0609,2.0613,2.0616,2.0617,2.0794,2.0796,0,0,0,0,0,0,2.0354,2.0367,2.0477,2.0482,2.0407,2.046,2.0469,2.0496,2.0538,2.0543,2.0508,2.0506,2.0576,2.0584,2.0591,2.0668,2.0613,2.0618,2.062,2.0792,2.0794,2.0796,0,0,0,0,0,0,2.0351,2.0364,2.0474,2.0424,2.0438,2.0464,2.0495,2.0498,2.0517,2.0546,2.055,2.0523,2.0575,2.0585,2.0641,2.0671,2.062,2.0624,2.079,2.0793,2.0795,2.0822,0,0,0,0,0,0,2.0346,2.0363,2.0387,2.0425,2.0441,2.0524,2.0496,2.0501,2.0525,2.0523,2.0561,2.0565,2.0574,2.0635,2.0646,2.0676,2.0627,2.0787,2.0791,2.0794,2.0819,2.0826,2.0832,0,0,0,0,0,2.0341,2.0391,2.0389,2.0402,2.0473,2.0526,2.0535,2.0545,2.0528,2.0552,2.0571,2.0564,2.0666,2.064,2.0653,2.0685,2.0785,2.079,2.0794,2.0816,2.0824,2.0832,0,0,0,0,0,0,2.0355,2.0396,2.0394,2.0458,2.0489,2.0524,2.0556,2.0554,2.0589,2.0586,2.0596,2.0605,2.0662,2.0679,2.065,2.0748,2.0723,2.073,2.0735,2.0744,2.075,2.0745,2.0631,0,0,0,0,0,2.0366,2.0406,2.044,2.0493,2.0508,2.053,2.0553,2.0559,2.059,2.0603,2.0625,2.0656,2.0694,2.072,2.0757,2.0821,2.0829,2.0849,2.0855,2.0861,2.0867,2.0903,2.0913,2.0811,2.0811,2.0811,0,0,2.0388,2.0415,2.044,2.0496,2.0521,2.0562,2.054,2.0585,2.0615,2.0609,2.0665,2.0682,2.0716,2.0777,2.0805,2.0793,2.0897,2.0866,2.087,2.0874,2.0909,2.0918,2.0927,2.0814,2.0813,2.0813,0,0,2.045,2.0475,2.0522,2.0547,2.0585,2.0599,2.061,2.0647,2.0659,2.0714,2.0711,2.0746,2.0813,2.0838,2.0859,2.0931,2.0926,2.0943,2.0977,2.1012,2.102,2.1027,2.1053,2.1063,2.0949,2.0949,2.0949,0,2.0473,2.0536,2.0547,2.0592,2.0617,2.0614,2.0663,2.0686,2.0733,2.075,2.0736,2.082,2.0843,2.091,2.0928,2.0945,2.0958,2.0939,2.1018,2.1025,2.1032,2.1057,2.1067,2.0951,2.095,2.095,2.095,0,2.0562,2.0606,2.064,2.0687,2.0716,2.0762,2.0779,2.0807,2.081,2.0825,2.0881,2.0909,2.0952,2.0968,2.0971,2.1036,2.1027,2.1015,2.099,2.1043,2.1067,2.1077,2.0953,2.0953,2.0952,2.0952,0,0,2.0635,2.0689,2.0701,2.0723,2.0765,2.0798,2.0844,2.0888,2.0911,2.0944,2.0983,2.1039,2.1029,2.1053,2.1059,2.1089,2.1146,2.1074,2.1075,2.1087,2.122,2.123,2.1241,2.1142,2.1144,2.1146,2.1217,0,2.0702,2.0786,2.0797,2.087,2.0911,2.0909,2.0949,2.0979,2.0994,2.103,2.1046,2.1087,2.1069,2.1084,2.1114,2.1132,2.1173,2.1127,2.1179,2.1181,2.1172,2.1253,2.1263,2.133,2.1227,2.1228,2.123,0,2.0792,2.0829,2.0907,2.0943,2.0961,2.0997,2.1038,2.1073,2.1106,2.1114,2.1142,2.1144,2.1191,2.1163,2.1229,2.1198,2.1219,2.1231,2.1234,2.124,2.1209,2.1263,2.1351,2.1362,2.1244,2.1243,2.1242,0,2.0839,2.0907,2.0963,2.0982,2.1026,2.1052,2.1071,2.1102,2.1128,2.1163,2.118,2.122,2.1242,2.1272,2.1285,2.1263,2.1349,2.1323,2.1358,2.1358,2.1377,2.1376,2.1472,2.1389,2.1389,2.1389,2.1389,0,2.0913,2.0961,2.0985,2.102,2.1074,2.1086,2.1138,2.1156,2.1184,2.1222,2.1221,2.1256,2.127,2.1307,2.1316,2.137,2.1379,2.1387,2.139,2.1388,2.1388,2.1403,2.14,2.1392,2.1391,2.139,2.139,0,2.0975,2.0993,2.1054,2.1091,2.1102,2.114,2.1171,2.1204,2.1219,2.1266,2.1278,2.1301,2.1345,2.136,2.1412,2.1419,2.1481,2.1478,2.147,2.1471,2.1506,2.1503,2.1617,2.1632,2.1538,2.1539,2.154,0,2.1022,2.1059,2.1101,2.1127,2.1147,2.1188,2.1215,2.1228,2.1255,2.1296,2.1325,2.1368,2.1404,2.1473,2.1494,2.1535,2.1534,2.1571,2.154,2.1538,2.1536,2.1534,2.1538,2.1577,2.1578,2.1579,2.1579,0,2.1104,2.1111,2.115,2.1193,2.1225,2.1259,2.1291,2.1312,2.1329,2.136,2.1406,2.1433,2.1488,2.1531,2.1572,2.1591,2.1588,2.1589,2.1599,2.1599,2.1593,2.1598,2.1487,2.1586,2.1586,2.1585,2.1585,2.1584,2.1161,2.1194,2.1229,2.1273,2.1299,2.1329,2.1363,2.1382,2.1421,2.1467,2.1471,2.1521,2.1553,2.1608,2.1629,2.1667,2.1657,2.1672,2.1676,2.168,2.1683,2.1586,2.1674,2.1674,2.1674,2.1674,2.1674,0,2.1243,2.1266,2.1306,2.1352,2.1387,2.1382,2.1418,2.1447,2.149,2.1521,2.1557,2.1609,2.1651,2.1675,2.1718,2.1743,2.1743,2.1754,2.1753,2.1758,2.1689,2.1676,2.1754,2.1754,2.1754,2.1754,2.1754,2.1754,2.1291,2.1348,2.1359,2.1428,2.145,2.15,2.1521,2.1549,2.1574,2.1633,2.1668,2.1684,2.1712,2.1757,2.1795,2.1801,2.1817,2.1829,2.1834,2.177,2.1762,2.1754,2.1743,2.1832,2.1832,2.19,2.19,2.1901]}]]